DAL465 KLAX-PHNL

Flight info

Callsign DAL465
Flight time 5h 20m
Altitude 40000
Route SUMMR2 DINTY DUETS R576 DENNS MAGGI3
Aircraft A359/H-SDE2E3GHIJ3J4J5LM1ORWXY/LB1D1

Departure

Time 2026-05-04 19:37
Airport Los Angeles International Airport (KLAX)

Arrival

Time 2026-05-05 00:57
Airport Daniel K. Inouye International Airport (PHNL)
Time Latitude Longitude Altitude Speed Heading
2026-05-04 19:08 33.94708 -118.40670 99 ft 0 kts 220°
2026-05-04 19:25 33.94713 -118.40664 101 ft 2 kts 236°
2026-05-04 19:25 33.94721 -118.40643 100 ft 3 kts 276°
2026-05-04 19:25 33.94714 -118.40619 99 ft 3 kts 315°
2026-05-04 19:25 33.94710 -118.40614 99 ft 3 kts 323°
2026-05-04 19:26 33.94693 -118.40602 100 ft 3 kts 336°
2026-05-04 19:26 33.94676 -118.40593 99 ft 3 kts 338°
2026-05-04 19:26 33.94668 -118.40589 100 ft 0 kts 355°
2026-05-04 19:31 33.94672 -118.40590 101 ft 4 kts 354°
2026-05-04 19:31 33.94740 -118.40585 100 ft 13 kts
2026-05-04 19:31 33.94831 -118.40599 101 ft 10 kts 359°
2026-05-04 19:32 33.94864 -118.40549 101 ft 11 kts 69°
2026-05-04 19:32 33.94881 -118.40430 102 ft 16 kts 82°
2026-05-04 19:32 33.94896 -118.40290 101 ft 18 kts 83°
2026-05-04 19:32 33.94912 -118.40129 101 ft 21 kts 83°
2026-05-04 19:33 33.94926 -118.39988 99 ft 13 kts 82°
2026-05-04 19:33 33.94943 -118.39939 101 ft 0 kts 51°
2026-05-04 19:34 33.94944 -118.39939 101 ft 1 kts 50°
2026-05-04 19:34 33.94999 -118.39915 100 ft 13 kts
2026-05-04 19:34 33.95040 -118.39961 103 ft 8 kts 282°
2026-05-04 19:34 33.95037 -118.40009 100 ft 0 kts 262°
2026-05-04 19:36 33.95016 -118.40203 105 ft 56 kts 263°
2026-05-04 19:36 33.94942 -118.40930 103 ft 119 kts 263°
2026-05-04 19:37 33.94822 -118.42123 268 ft 153 kts 261°
2026-05-04 19:37 33.94674 -118.43333 1110 ft 143 kts 259°
2026-05-04 19:37 33.94521 -118.44534 1811 ft 147 kts 261°
2026-05-04 19:37 33.94384 -118.45792 2333 ft 162 kts 263°
2026-05-04 19:38 33.94255 -118.47236 2704 ft 183 kts 264°
2026-05-04 19:38 33.94170 -118.48827 3171 ft 199 kts 268°
2026-05-04 19:38 33.94166 -118.50546 3635 ft 218 kts 271°
2026-05-04 19:38 33.94196 -118.52444 4117 ft 235 kts 270°
2026-05-04 19:39 33.94086 -118.54475 4684 ft 248 kts 263°
2026-05-04 19:39 33.93843 -118.56552 5461 ft 253 kts 262°
2026-05-04 19:39 33.93624 -118.58670 6333 ft 256 kts 265°
2026-05-04 19:39 33.93450 -118.60786 7149 ft 257 kts 265°
2026-05-04 19:40 33.93281 -118.62940 8006 ft 257 kts 265°
2026-05-04 19:40 33.93112 -118.65094 8658 ft 259 kts 264°
2026-05-04 19:40 33.92944 -118.67276 9287 ft 263 kts 264°
2026-05-04 19:40 33.92776 -118.69458 9955 ft 265 kts 264°
2026-05-04 19:41 33.92601 -118.71698 10407 ft 274 kts 264°
2026-05-04 19:41 33.92417 -118.74053 10680 ft 289 kts 264°
2026-05-04 19:41 33.92211 -118.76533 10939 ft 304 kts 263°
2026-05-04 19:41 33.91954 -118.79084 11192 ft 317 kts 262°
2026-05-04 19:42 33.91675 -118.81776 11425 ft 329 kts 262°
2026-05-04 19:42 33.91390 -118.84565 11687 ft 340 kts 262°
2026-05-04 19:42 33.91102 -118.87413 12082 ft 345 kts 262°
2026-05-04 19:42 33.90811 -118.90308 12544 ft 349 kts 262°
2026-05-04 19:43 33.90518 -118.93221 13001 ft 352 kts 262°
2026-05-04 19:43 33.90222 -118.96163 13452 ft 355 kts 262°
2026-05-04 19:43 33.89926 -118.99093 13878 ft 358 kts 262°
2026-05-04 19:43 33.89625 -119.02075 14288 ft 360 kts 262°
2026-05-04 19:44 33.89321 -119.05078 14744 ft 360 kts 262°
2026-05-04 19:44 33.89017 -119.08076 15218 ft 361 kts 262°
2026-05-04 19:44 33.88714 -119.11049 15671 ft 361 kts 261°
2026-05-04 19:44 33.88407 -119.14055 16148 ft 362 kts 261°
2026-05-04 19:45 33.88099 -119.17072 16599 ft 363 kts 261°
2026-05-04 19:45 33.87787 -119.20111 17053 ft 364 kts 261°
2026-05-04 19:45 33.87480 -119.23104 17501 ft 365 kts 261°
2026-05-04 19:45 33.87166 -119.26150 17931 ft 367 kts 261°
2026-05-04 19:46 33.86848 -119.29223 18289 ft 370 kts 261°
2026-05-04 19:46 33.86530 -119.32302 18686 ft 371 kts 261°
2026-05-04 19:46 33.86214 -119.35343 19106 ft 370 kts 261°
2026-05-04 19:46 33.85895 -119.38413 19520 ft 369 kts 260°
2026-05-04 19:47 33.85575 -119.41483 19939 ft 369 kts 260°
2026-05-04 19:47 33.85255 -119.44549 20347 ft 369 kts 260°
2026-05-04 19:47 33.84933 -119.47620 20733 ft 369 kts 260°
2026-05-04 19:47 33.84611 -119.50687 21132 ft 369 kts 259°
2026-05-04 19:48 33.84292 -119.53713 21494 ft 369 kts 259°
2026-05-04 19:48 33.83968 -119.56779 21876 ft 369 kts 259°
2026-05-04 19:48 33.83643 -119.59851 22254 ft 369 kts 259°
2026-05-04 19:48 33.83319 -119.62913 22624 ft 369 kts 259°
2026-05-04 19:49 33.82993 -119.65974 23003 ft 369 kts 259°
2026-05-04 19:49 33.82667 -119.69039 23357 ft 369 kts 259°
2026-05-04 19:49 33.82344 -119.72059 23705 ft 369 kts 258°
2026-05-04 19:49 33.82015 -119.75134 23970 ft 370 kts 258°
2026-05-04 19:50 33.81683 -119.78218 24212 ft 371 kts 258°
2026-05-04 19:50 33.81351 -119.81304 24448 ft 372 kts 258°
2026-05-04 19:50 33.81021 -119.84363 24705 ft 374 kts 258°
2026-05-04 19:50 33.80683 -119.87480 24935 ft 375 kts 258°
2026-05-04 19:51 33.80346 -119.90598 25174 ft 376 kts 258°
2026-05-04 19:51 33.80006 -119.93729 25420 ft 377 kts 257°
2026-05-04 19:51 33.79665 -119.96857 25664 ft 378 kts 257°
2026-05-04 19:51 33.79325 -119.99969 25909 ft 379 kts 257°
2026-05-04 19:52 33.78979 -120.03131 26128 ft 380 kts 257°
2026-05-04 19:52 33.78637 -120.06253 26376 ft 381 kts 257°
2026-05-04 19:52 33.78287 -120.09431 26631 ft 382 kts 257°
2026-05-04 19:52 33.77937 -120.12611 26886 ft 384 kts 257°
2026-05-04 19:53 33.77581 -120.15826 27013 ft 389 kts 257°
2026-05-04 19:53 33.77222 -120.19061 27285 ft 390 kts 257°
2026-05-04 19:53 33.76868 -120.22262 27582 ft 390 kts 256°
2026-05-04 19:53 33.76507 -120.25508 27863 ft 391 kts 256°
2026-05-04 19:54 33.76148 -120.28729 28143 ft 393 kts 256°
2026-05-04 19:54 33.75784 -120.31984 28429 ft 394 kts 256°
2026-05-04 19:54 33.75416 -120.35264 28716 ft 395 kts 256°
2026-05-04 19:54 33.75047 -120.38550 28995 ft 396 kts 256°
2026-05-04 19:55 33.74676 -120.41839 29277 ft 398 kts 256°
2026-05-04 19:55 33.74302 -120.45152 29531 ft 400 kts 256°
2026-05-04 19:55 33.73930 -120.48437 29823 ft 401 kts 255°
2026-05-04 19:55 33.73551 -120.51780 30120 ft 402 kts 255°
2026-05-04 19:56 33.73171 -120.55119 30357 ft 404 kts 255°
2026-05-04 19:56 33.72787 -120.58485 30540 ft 406 kts 255°
2026-05-04 19:56 33.72402 -120.61854 30745 ft 408 kts 255°
2026-05-04 19:56 33.72019 -120.65200 30944 ft 410 kts 255°
2026-05-04 19:57 33.71626 -120.68617 31140 ft 412 kts 255°
2026-05-04 19:57 33.71233 -120.72032 31347 ft 414 kts 255°
2026-05-04 19:57 33.70837 -120.75467 31527 ft 415 kts 256°
2026-05-04 19:57 33.70438 -120.78916 31715 ft 417 kts 256°
2026-05-04 19:58 33.70041 -120.82332 31885 ft 418 kts 256°
2026-05-04 19:58 33.69638 -120.85801 32062 ft 420 kts 256°
2026-05-04 19:58 33.69233 -120.89278 32285 ft 420 kts 256°
2026-05-04 19:58 33.68828 -120.92748 32539 ft 419 kts 256°
2026-05-04 19:59 33.68421 -120.96224 32790 ft 420 kts 256°
2026-05-04 19:59 33.67602 -121.03182 33085 ft 423 kts 256°
2026-05-04 19:59 33.67188 -121.06697 33353 ft 423 kts 256°
2026-05-04 20:00 33.66774 -121.10196 33604 ft 422 kts 256°
2026-05-04 20:00 33.66365 -121.13650 33852 ft 422 kts 256°
2026-05-04 20:00 33.65949 -121.17146 34071 ft 422 kts 256°
2026-05-04 20:00 33.65531 -121.20648 34289 ft 423 kts 256°
2026-05-04 20:01 33.65113 -121.24146 34468 ft 423 kts 256°
2026-05-04 20:01 33.64691 -121.27661 34575 ft 427 kts 256°
2026-05-04 20:01 33.64270 -121.31158 34710 ft 428 kts 256°
2026-05-04 20:01 33.63845 -121.34692 34933 ft 428 kts 256°
2026-05-04 20:02 33.63417 -121.38247 35136 ft 428 kts 256°
2026-05-04 20:02 33.62989 -121.41788 35334 ft 428 kts 256°
2026-05-04 20:02 33.62564 -121.45290 35527 ft 428 kts 256°
2026-05-04 20:02 33.62132 -121.48845 35711 ft 429 kts 256°
2026-05-04 20:03 33.61699 -121.52392 35927 ft 429 kts 256°
2026-05-04 20:03 33.61272 -121.55895 36149 ft 429 kts 256°
2026-05-04 20:03 33.60838 -121.59436 36347 ft 429 kts 256°
2026-05-04 20:03 33.60402 -121.62989 36550 ft 430 kts 256°
2026-05-04 20:04 33.59965 -121.66536 36722 ft 430 kts 256°
2026-05-04 20:04 33.59525 -121.70102 36916 ft 431 kts 256°
2026-05-04 20:04 33.59085 -121.73663 37089 ft 431 kts 256°
2026-05-04 20:04 33.58648 -121.77180 37265 ft 432 kts 256°
2026-05-04 20:05 33.58206 -121.80745 37453 ft 432 kts 256°
2026-05-04 20:05 33.57759 -121.84328 37632 ft 433 kts 256°
2026-05-04 20:05 33.57317 -121.87873 37783 ft 433 kts 256°
2026-05-04 20:05 33.56868 -121.91457 37949 ft 434 kts 256°
2026-05-04 20:06 33.56418 -121.95045 38118 ft 434 kts 256°
2026-05-04 20:06 33.55966 -121.98639 38279 ft 434 kts 256°
2026-05-04 20:06 33.55519 -122.02185 38436 ft 435 kts 256°
2026-05-04 20:06 33.55064 -122.05783 38589 ft 435 kts 256°
2026-05-04 20:07 33.54609 -122.09377 38726 ft 436 kts 256°
2026-05-04 20:07 33.53689 -122.16610 38905 ft 439 kts 256°
2026-05-04 20:07 33.53228 -122.20225 39030 ft 439 kts 256°
2026-05-04 20:08 33.52770 -122.23807 39144 ft 439 kts 256°
2026-05-04 20:08 33.52307 -122.27425 39247 ft 439 kts 256°
2026-05-04 20:08 33.51840 -122.31059 39358 ft 439 kts 256°
2026-05-04 20:08 33.51373 -122.34684 39470 ft 440 kts 256°
2026-05-04 20:09 33.50904 -122.38311 39510 ft 442 kts 257°
2026-05-04 20:09 33.49962 -122.45584 39642 ft 444 kts 257°
2026-05-04 20:09 33.49487 -122.49240 39753 ft 443 kts 257°
2026-05-04 20:10 33.49010 -122.52898 39843 ft 444 kts 257°
2026-05-04 20:10 33.48216 -122.58973 39990 ft 444 kts 257°
2026-05-04 20:11 33.46924 -122.66158 40102 ft 443 kts 252°
2026-05-04 20:11 33.45329 -122.73299 40102 ft 443 kts 252°
2026-05-04 20:12 33.43762 -122.80463 40099 ft 444 kts 252°
2026-05-04 20:12 33.42262 -122.87595 40099 ft 444 kts 253°
2026-05-04 20:13 33.40773 -122.94777 40103 ft 444 kts 253°
2026-05-04 20:13 33.39286 -123.01928 40102 ft 445 kts 253°
2026-05-04 20:14 33.37785 -123.09116 40105 ft 445 kts 253°
2026-05-04 20:14 33.36274 -123.16320 40114 ft 445 kts 253°
2026-05-04 20:15 33.34768 -123.23472 40113 ft 445 kts 253°
2026-05-04 20:15 33.33248 -123.30670 40105 ft 446 kts 253°
2026-05-04 20:16 33.31722 -123.37878 40111 ft 447 kts 253°
2026-05-04 20:16 33.30202 -123.45038 40111 ft 447 kts 253°
2026-05-04 20:17 33.28668 -123.52238 40105 ft 446 kts 253°
2026-05-04 20:17 33.27136 -123.59410 40112 ft 446 kts 253°
2026-05-04 20:18 33.25589 -123.66628 40108 ft 446 kts 253°
2026-05-04 20:18 33.24051 -123.73778 40113 ft 447 kts 253°
2026-05-04 20:19 33.22495 -123.80992 40111 ft 447 kts 253°
2026-05-04 20:19 33.20946 -123.88156 40108 ft 447 kts 253°
2026-05-04 20:20 33.19383 -123.95362 40106 ft 447 kts 253°
2026-05-04 20:20 33.17821 -124.02541 40118 ft 449 kts 253°
2026-05-04 20:21 33.16244 -124.09766 40108 ft 449 kts 253°
2026-05-04 20:21 33.13874 -124.20586 40115 ft 449 kts 253°
2026-05-04 20:22 33.12293 -124.27775 40118 ft 450 kts 254°
2026-05-04 20:22 33.10699 -124.35003 40106 ft 450 kts 254°
2026-05-04 20:23 33.09101 -124.42229 40105 ft 450 kts 254°
2026-05-04 20:23 33.07503 -124.49431 40111 ft 450 kts 254°
2026-05-04 20:24 33.05891 -124.56678 40105 ft 451 kts 254°
2026-05-04 20:24 33.04282 -124.63867 40105 ft 451 kts 254°
2026-05-04 20:25 33.02658 -124.71101 40114 ft 451 kts 254°
2026-05-04 20:25 33.01030 -124.78332 40110 ft 452 kts 254°
2026-05-04 20:26 32.99405 -124.85534 40113 ft 453 kts 254°
2026-05-04 20:26 32.97758 -124.92810 40113 ft 453 kts 254°
2026-05-04 20:27 32.96122 -125.00018 40110 ft 453 kts 254°
2026-05-04 20:27 32.94473 -125.07262 40113 ft 454 kts 254°
2026-05-04 20:28 32.92823 -125.14494 40113 ft 454 kts 254°
2026-05-04 20:28 32.91162 -125.21747 40113 ft 454 kts 254°
2026-05-04 20:29 32.89501 -125.28980 40110 ft 454 kts 254°
2026-05-04 20:29 32.87828 -125.36246 40113 ft 454 kts 254°
2026-05-04 20:30 32.86162 -125.43459 40128 ft 454 kts 254°
2026-05-04 20:30 32.84481 -125.50718 40110 ft 454 kts 254°
2026-05-04 20:31 32.82797 -125.57968 40114 ft 455 kts 254°
2026-05-04 20:31 32.81112 -125.65200 40115 ft 455 kts 254°
2026-05-04 20:32 32.79417 -125.72459 40120 ft 455 kts 254°
2026-05-04 20:32 32.77716 -125.79721 40108 ft 456 kts 254°
2026-05-04 20:33 32.76018 -125.86947 40121 ft 456 kts 254°
2026-05-04 20:33 32.74305 -125.94218 40117 ft 456 kts 254°
2026-05-04 20:34 32.72599 -126.01438 40111 ft 456 kts 254°
2026-05-04 20:34 32.70875 -126.08715 40118 ft 456 kts 254°
2026-05-04 20:35 32.69161 -126.15931 40114 ft 456 kts 254°
2026-05-04 20:35 32.67428 -126.23204 40108 ft 456 kts 254°
2026-05-04 20:36 32.65705 -126.30415 40114 ft 456 kts 254°
2026-05-04 20:36 32.63964 -126.37681 40122 ft 456 kts 254°
2026-05-04 20:37 32.62225 -126.44920 40110 ft 457 kts 254°
2026-05-04 20:37 32.60477 -126.52173 40114 ft 457 kts 255°
2026-05-04 20:38 32.58732 -126.59398 40121 ft 457 kts 255°
2026-05-04 20:38 32.56981 -126.66624 40120 ft 457 kts 255°
2026-05-04 20:39 32.55216 -126.73889 40117 ft 457 kts 255°
2026-05-04 20:39 32.53457 -126.81108 40119 ft 457 kts 255°
2026-05-04 20:40 32.51685 -126.88364 40120 ft 457 kts 255°
2026-05-04 20:40 32.49921 -126.95565 40124 ft 457 kts 255°
2026-05-04 20:41 32.48144 -127.02800 40112 ft 457 kts 255°
2026-05-04 20:41 32.46361 -127.10041 40122 ft 456 kts 255°
2026-05-04 20:42 32.44586 -127.17229 40121 ft 456 kts 255°
2026-05-04 20:42 32.42799 -127.24446 40114 ft 456 kts 255°
2026-05-04 20:43 32.41007 -127.31664 40124 ft 456 kts 255°
2026-05-04 20:43 32.39224 -127.38826 40125 ft 456 kts 255°
2026-05-04 20:44 32.37423 -127.46043 40124 ft 456 kts 255°
2026-05-04 20:44 32.35618 -127.53254 40123 ft 456 kts 255°
2026-05-04 20:45 32.33824 -127.60403 40127 ft 456 kts 255°
2026-05-04 20:45 32.32021 -127.67568 40124 ft 456 kts 255°
2026-05-04 20:46 32.30205 -127.74768 40122 ft 456 kts 255°
2026-05-04 20:46 32.28387 -127.81955 40131 ft 456 kts 255°
2026-05-04 20:47 32.26572 -127.89112 40133 ft 457 kts 255°
2026-05-04 20:47 32.24734 -127.96343 40120 ft 459 kts 255°
2026-05-04 20:48 32.22900 -128.03534 40126 ft 459 kts 255°
2026-05-04 20:48 32.21053 -128.10758 40126 ft 459 kts 255°
2026-05-04 20:49 32.19211 -128.17946 40124 ft 459 kts 255°
2026-05-04 20:49 32.17364 -128.25132 40124 ft 458 kts 256°
2026-05-04 20:50 32.15502 -128.32359 40130 ft 458 kts 255°
2026-05-04 20:50 32.13656 -128.39504 40129 ft 458 kts 255°
2026-05-04 20:51 32.11792 -128.46703 40129 ft 458 kts 255°
2026-05-04 20:51 32.09927 -128.53888 40130 ft 458 kts 255°
2026-05-04 20:52 32.08053 -128.61086 40126 ft 458 kts 255°
2026-05-04 20:52 32.06187 -128.68234 40123 ft 458 kts 255°
2026-05-04 20:53 32.04308 -128.75414 40132 ft 457 kts 255°
2026-05-04 20:53 32.02427 -128.82586 40132 ft 457 kts 255°
2026-05-04 20:54 32.00541 -128.89758 40108 ft 457 kts 256°
2026-05-04 20:54 31.98664 -128.96875 40133 ft 457 kts 256°
2026-05-04 20:55 31.96773 -129.04028 40132 ft 456 kts 256°
2026-05-04 20:55 31.94881 -129.11171 40136 ft 457 kts 256°
2026-05-04 20:56 31.92994 -129.18269 40137 ft 456 kts 256°
2026-05-04 20:56 31.91095 -129.25399 40143 ft 455 kts 256°
2026-05-04 20:57 31.89208 -129.32470 40143 ft 455 kts 256°
2026-05-04 20:57 31.87301 -129.39592 40142 ft 455 kts 256°
2026-05-04 20:58 31.85718 -129.45490 40146 ft 454 kts 256°
2026-05-04 20:58 31.83496 -129.53752 40148 ft 454 kts 256°
2026-05-04 20:59 31.81597 -129.60796 40142 ft 453 kts 257°
2026-05-04 20:59 31.79997 -129.66713 40141 ft 452 kts 257°
2026-05-04 21:00 31.78093 -129.73741 40150 ft 452 kts 257°
2026-05-04 21:00 31.76193 -129.80743 40128 ft 452 kts 257°
2026-05-04 21:01 31.74275 -129.87786 40151 ft 450 kts 257°
2026-05-04 21:01 31.72365 -129.94786 40154 ft 450 kts 257°
2026-05-04 21:02 31.70458 -130.01760 40154 ft 450 kts 257°
2026-05-04 21:02 31.68534 -130.08774 40156 ft 449 kts 257°
2026-05-04 21:03 31.66619 -130.15745 40159 ft 450 kts 257°
2026-05-04 21:03 31.64702 -130.22705 40158 ft 450 kts 257°
2026-05-04 21:04 31.62773 -130.29689 40151 ft 449 kts 257°
2026-05-04 21:04 31.60842 -130.36659 40159 ft 448 kts 257°
2026-05-04 21:05 31.58920 -130.43588 40161 ft 448 kts 257°
2026-05-04 21:05 31.56988 -130.50533 40162 ft 447 kts 258°
2026-05-04 21:06 31.55069 -130.57411 40162 ft 444 kts 258°
2026-05-04 21:06 31.53140 -130.64317 40162 ft 444 kts 258°
2026-05-04 21:07 31.51227 -130.71152 40165 ft 444 kts 258°
2026-05-04 21:07 31.49290 -130.78055 40165 ft 444 kts 258°
2026-05-04 21:08 31.47365 -130.84895 40165 ft 444 kts 258°
2026-05-04 21:08 31.45424 -130.91779 40140 ft 444 kts 258°
2026-05-04 21:09 31.43486 -130.98630 40167 ft 441 kts 258°
2026-05-04 21:09 31.41567 -131.05404 40170 ft 441 kts 258°
2026-05-04 21:10 31.39630 -131.12229 40173 ft 441 kts 258°
2026-05-04 21:10 31.37689 -131.19050 40171 ft 440 kts 257°
2026-05-04 21:11 31.35761 -131.25804 40173 ft 440 kts 257°
2026-05-04 21:11 31.33814 -131.32613 40175 ft 440 kts 257°
2026-05-04 21:12 31.31881 -131.39361 40176 ft 439 kts 257°
2026-05-04 21:12 31.29935 -131.46135 40178 ft 438 kts 257°
2026-05-04 21:13 31.27988 -131.52902 40181 ft 438 kts 257°
2026-05-04 21:13 31.26050 -131.59621 40174 ft 438 kts 257°
2026-05-04 21:14 31.24097 -131.66377 40190 ft 438 kts 257°
2026-05-04 21:14 31.22157 -131.73073 40190 ft 437 kts 257°
2026-05-04 21:15 31.20199 -131.79816 40181 ft 437 kts 257°
2026-05-04 21:15 31.18237 -131.86559 40195 ft 438 kts 257°
2026-05-04 21:16 31.16285 -131.93251 40194 ft 438 kts 257°
2026-05-04 21:16 31.14315 -131.99991 40180 ft 438 kts 257°
2026-05-04 21:17 31.12339 -132.06735 40216 ft 438 kts 257°
2026-05-04 21:17 31.10369 -132.13448 40195 ft 439 kts 257°
2026-05-04 21:18 31.08384 -132.20195 40174 ft 439 kts 257°
2026-05-04 21:18 31.06407 -132.26891 40197 ft 439 kts 257°
2026-05-04 21:19 31.04418 -132.33610 40200 ft 439 kts 257°
2026-05-04 21:19 31.02418 -132.40356 40207 ft 439 kts 257°
2026-05-04 21:20 31.00427 -132.47060 40205 ft 439 kts 257°
2026-05-04 21:20 30.98423 -132.53795 40206 ft 439 kts 257°
2026-05-04 21:21 30.96420 -132.60506 40206 ft 439 kts 257°
2026-05-04 21:21 30.94409 -132.67237 40208 ft 439 kts 256°
2026-05-04 21:22 30.92404 -132.73928 40211 ft 439 kts 256°
2026-05-04 21:22 30.90380 -132.80667 40211 ft 439 kts 256°
2026-05-04 21:23 30.88371 -132.87344 40214 ft 439 kts 256°
2026-05-04 21:23 30.86342 -132.94074 40214 ft 439 kts 256°
2026-05-04 21:24 30.84323 -133.00757 40213 ft 439 kts 256°
2026-05-04 21:24 30.82291 -133.07466 40210 ft 439 kts 256°
2026-05-04 21:25 30.80256 -133.14172 40208 ft 439 kts 256°
2026-05-04 21:25 30.78225 -133.20851 40222 ft 439 kts 256°
2026-05-04 21:26 30.76186 -133.27544 40221 ft 439 kts 256°
2026-05-04 21:26 30.74134 -133.34260 40219 ft 439 kts 256°
2026-05-04 21:27 30.72094 -133.40928 40219 ft 439 kts 256°
2026-05-04 21:27 30.70039 -133.47629 40219 ft 439 kts 256°
2026-05-04 21:28 30.67992 -133.54289 40227 ft 439 kts 256°
2026-05-04 21:28 30.65933 -133.60974 40228 ft 439 kts 256°
2026-05-04 21:29 30.63870 -133.67659 40223 ft 439 kts 255°
2026-05-04 21:29 30.61804 -133.74341 40227 ft 439 kts 255°
2026-05-04 21:30 30.59749 -133.80973 40234 ft 439 kts 255°
2026-05-04 21:30 30.57677 -133.87646 40230 ft 438 kts 255°
2026-05-04 21:31 30.54570 -133.97623 40244 ft 438 kts 255°
2026-05-04 21:32 30.52505 -134.04243 40228 ft 439 kts 255°
2026-05-04 21:32 30.50421 -134.10904 40236 ft 439 kts 255°
2026-05-04 21:33 30.48332 -134.17570 40238 ft 439 kts 255°
2026-05-04 21:33 30.46244 -134.24218 40228 ft 439 kts 255°
2026-05-04 21:34 30.44164 -134.30829 40238 ft 439 kts 255°
2026-05-04 21:34 30.42064 -134.37487 40238 ft 439 kts 255°
2026-05-04 21:35 30.39974 -134.44102 40234 ft 439 kts 255°
2026-05-04 21:35 30.37869 -134.50750 40241 ft 439 kts 255°
2026-05-04 21:36 30.35769 -134.57371 40242 ft 439 kts 255°
2026-05-04 21:36 30.33655 -134.64018 40234 ft 439 kts 255°
2026-05-04 21:37 30.31544 -134.70648 40242 ft 440 kts 255°
2026-05-04 21:37 30.29416 -134.77313 40246 ft 440 kts 255°
2026-05-04 21:38 30.27302 -134.83925 40244 ft 440 kts 255°
2026-05-04 21:38 30.25172 -134.90569 40248 ft 440 kts 255°
2026-05-04 21:39 30.23054 -134.97166 40245 ft 440 kts 255°
2026-05-04 21:39 30.20916 -135.03811 40248 ft 440 kts 254°
2026-05-04 21:40 30.18773 -135.10461 40249 ft 440 kts 254°
2026-05-04 21:40 30.16637 -135.17072 40241 ft 440 kts 254°
2026-05-04 21:41 30.14497 -135.23684 40251 ft 441 kts 254°
2026-05-04 21:41 30.12344 -135.30320 40252 ft 441 kts 254°
2026-05-04 21:42 30.10182 -135.36973 40253 ft 441 kts 254°
2026-05-04 21:42 30.08026 -135.43593 40256 ft 442 kts 254°
2026-05-04 21:43 30.05866 -135.50215 40251 ft 442 kts 253°
2026-05-04 21:43 30.03696 -135.56854 40253 ft 442 kts 253°
2026-05-04 21:44 30.01522 -135.63489 40264 ft 442 kts 253°
2026-05-04 21:44 29.99338 -135.70145 40251 ft 443 kts 253°
2026-05-04 21:45 29.97151 -135.76793 40260 ft 443 kts 253°
2026-05-04 21:45 29.94970 -135.83413 40267 ft 443 kts 253°
2026-05-04 21:46 29.93147 -135.88936 40262 ft 443 kts 253°
2026-05-04 21:46 29.90947 -135.95590 40258 ft 443 kts 253°
2026-05-04 21:47 29.88740 -136.02252 40266 ft 443 kts 253°
2026-05-04 21:47 29.86547 -136.08857 40263 ft 443 kts 253°
2026-05-04 21:48 29.84335 -136.15508 40263 ft 443 kts 253°
2026-05-04 21:48 29.82136 -136.22107 40261 ft 443 kts 253°
2026-05-04 21:49 29.79916 -136.28756 40260 ft 443 kts 253°
2026-05-04 21:49 29.77711 -136.35344 40267 ft 443 kts 253°
2026-05-04 21:50 29.75486 -136.41984 40265 ft 444 kts 253°
2026-05-04 21:50 29.73257 -136.48619 40267 ft 444 kts 253°
2026-05-04 21:51 29.71037 -136.55217 40261 ft 444 kts 252°
2026-05-04 21:51 29.68802 -136.61848 40269 ft 444 kts 252°
2026-05-04 21:52 29.66572 -136.68448 40265 ft 444 kts 252°
2026-05-04 21:52 29.64325 -136.75088 40265 ft 444 kts 252°
2026-05-04 21:53 29.62095 -136.81664 40254 ft 444 kts 252°
2026-05-04 21:53 29.59845 -136.88288 40267 ft 444 kts 252°
2026-05-04 21:54 29.57594 -136.94900 40264 ft 444 kts 252°
2026-05-04 21:54 29.55346 -137.01494 40264 ft 444 kts 252°
2026-05-04 21:55 29.53101 -137.08064 40268 ft 444 kts 252°
2026-05-04 21:55 29.50840 -137.14670 40268 ft 444 kts 252°
2026-05-04 21:56 29.48572 -137.21283 40263 ft 444 kts 252°
2026-05-04 21:56 29.46313 -137.27857 40266 ft 444 kts 252°
2026-05-04 21:57 29.44055 -137.34417 40280 ft 444 kts 252°
2026-05-04 21:57 29.41780 -137.41012 40271 ft 444 kts 252°
2026-05-04 21:58 29.39503 -137.47603 40269 ft 444 kts 252°
2026-05-04 21:58 29.37234 -137.54156 40273 ft 444 kts 252°
2026-05-04 21:59 29.34955 -137.60728 40266 ft 444 kts 251°
2026-05-04 21:59 29.32667 -137.67312 40264 ft 444 kts 251°
2026-05-04 22:00 29.30386 -137.73864 40268 ft 444 kts 251°
2026-05-04 22:00 29.28102 -137.80411 40271 ft 443 kts 251°
2026-05-04 22:01 29.25805 -137.86986 40274 ft 444 kts 251°
2026-05-04 22:01 29.23507 -137.93551 40274 ft 444 kts 251°
2026-05-04 22:02 29.21220 -138.00073 40267 ft 444 kts 251°
2026-05-04 22:02 29.18909 -138.06651 40271 ft 444 kts 251°
2026-05-04 22:03 29.16612 -138.13175 40271 ft 444 kts 251°
2026-05-04 22:03 29.14297 -138.19740 40271 ft 444 kts 251°
2026-05-04 22:04 29.11989 -138.26275 40258 ft 444 kts 251°
2026-05-04 22:04 29.09674 -138.32816 40270 ft 444 kts 251°
2026-05-04 22:05 29.07350 -138.39371 40272 ft 444 kts 251°
2026-05-04 22:05 29.05040 -138.45873 40270 ft 444 kts 251°
2026-05-04 22:06 29.02712 -138.52416 40272 ft 444 kts 251°
2026-05-04 22:06 29.00392 -138.58923 40272 ft 444 kts 251°
2026-05-04 22:07 28.98057 -138.65461 40269 ft 444 kts 251°
2026-05-04 22:07 28.95714 -138.72010 40268 ft 444 kts 251°
2026-05-04 22:08 28.93385 -138.78507 40273 ft 444 kts 251°
2026-05-04 22:08 28.91039 -138.85040 40270 ft 444 kts 251°
2026-05-04 22:09 28.88703 -138.91536 40272 ft 443 kts 251°
2026-05-04 22:09 28.86368 -138.98015 40270 ft 443 kts 250°
2026-05-04 22:10 28.84008 -139.04551 40269 ft 443 kts 250°
2026-05-04 22:10 28.81666 -139.11027 40271 ft 443 kts 250°
2026-05-04 22:11 28.79304 -139.17548 40260 ft 443 kts 250°
2026-05-04 22:11 28.76964 -139.23996 40268 ft 443 kts 250°
2026-05-04 22:12 28.74599 -139.30499 40276 ft 443 kts 250°
2026-05-04 22:12 28.72232 -139.36999 40271 ft 443 kts 250°
2026-05-04 22:13 28.69877 -139.43456 40268 ft 443 kts 250°
2026-05-04 22:13 28.67499 -139.49950 40269 ft 443 kts 250°
2026-05-04 22:14 28.65128 -139.56398 40274 ft 443 kts 250°
2026-05-04 22:14 28.62742 -139.62881 40273 ft 443 kts 250°
2026-05-04 22:15 28.60358 -139.69348 40272 ft 443 kts 250°
2026-05-04 22:15 28.57979 -139.75791 40271 ft 443 kts 250°
2026-05-04 22:16 28.55590 -139.82252 40271 ft 442 kts 250°
2026-05-04 22:16 28.53208 -139.88681 40271 ft 442 kts 250°
2026-05-04 22:17 28.50812 -139.95139 40274 ft 442 kts 250°
2026-05-04 22:17 28.48432 -140.01541 40271 ft 442 kts 250°
2026-05-04 22:18 28.46030 -140.07991 40268 ft 442 kts 250°
2026-05-04 22:18 28.43637 -140.14406 40271 ft 442 kts 250°
2026-05-04 22:19 28.41231 -140.20844 40269 ft 442 kts 250°
2026-05-04 22:19 28.38831 -140.27258 40268 ft 442 kts 250°
2026-05-04 22:20 28.36416 -140.33698 40268 ft 442 kts 250°
2026-05-04 22:20 28.34010 -140.40104 40257 ft 442 kts 250°
2026-05-04 22:21 28.31593 -140.46529 40268 ft 442 kts 249°
2026-05-04 22:21 28.29170 -140.52959 40268 ft 442 kts 249°
2026-05-04 22:22 28.26759 -140.59344 40269 ft 442 kts 249°
2026-05-04 22:22 28.24331 -140.65765 40272 ft 442 kts 249°
2026-05-04 22:23 28.21916 -140.72142 40251 ft 442 kts 249°
2026-05-04 22:23 28.19479 -140.78565 40263 ft 442 kts 249°
2026-05-04 22:24 28.17045 -140.84969 40269 ft 442 kts 249°
2026-05-04 22:24 28.14621 -140.91338 40270 ft 442 kts 249°
2026-05-04 22:25 28.12178 -140.97745 40263 ft 442 kts 249°
2026-05-04 22:25 28.09749 -141.04102 40253 ft 442 kts 249°
2026-05-04 22:26 28.07305 -141.10492 40269 ft 442 kts 249°
2026-05-04 22:26 28.04867 -141.16853 40268 ft 442 kts 249°
2026-05-04 22:27 28.02411 -141.23251 40261 ft 442 kts 249°
2026-05-04 22:27 27.99970 -141.29600 40261 ft 442 kts 249°
2026-05-04 22:28 27.97522 -141.35954 40264 ft 442 kts 249°
2026-05-04 22:28 27.95063 -141.42330 40264 ft 441 kts 249°
2026-05-04 22:29 27.92600 -141.48704 40270 ft 441 kts 249°
2026-05-04 22:29 27.90147 -141.55043 40263 ft 441 kts 249°
2026-05-04 22:30 27.87691 -141.61377 40263 ft 441 kts 249°
2026-05-04 22:30 27.85214 -141.67756 40273 ft 441 kts 249°
2026-05-04 22:31 27.82760 -141.74066 40260 ft 441 kts 249°
2026-05-04 22:31 27.80280 -141.80431 40265 ft 441 kts 249°
2026-05-04 22:32 27.77817 -141.86743 40269 ft 441 kts 249°
2026-05-04 22:32 27.75339 -141.93083 40262 ft 441 kts 249°
2026-05-04 22:33 27.73280 -141.98344 40260 ft 441 kts 249°
2026-05-04 22:33 27.70793 -142.04689 40272 ft 441 kts 249°
2026-05-04 22:34 27.68318 -142.10992 40262 ft 441 kts 249°
2026-05-04 22:34 27.65826 -142.17327 40262 ft 440 kts 249°
2026-05-04 22:35 27.63333 -142.23656 40261 ft 440 kts 249°
2026-05-04 22:35 27.60857 -142.29933 40262 ft 441 kts 249°
2026-05-04 22:36 27.58356 -142.36262 40265 ft 440 kts 249°
2026-05-04 22:36 27.55870 -142.42541 40263 ft 440 kts 249°
2026-05-04 22:37 27.53373 -142.48842 40259 ft 440 kts 249°
2026-05-04 22:37 27.50861 -142.55168 40268 ft 440 kts 249°
2026-05-04 22:38 27.48374 -142.61422 40270 ft 440 kts 249°
2026-05-04 22:38 27.45863 -142.67726 40270 ft 440 kts 248°
2026-05-04 22:39 27.43352 -142.74020 40260 ft 440 kts 249°
2026-05-04 22:39 27.40853 -142.80273 40259 ft 440 kts 248°
2026-05-04 22:40 27.38344 -142.86542 40264 ft 440 kts 248°
2026-05-04 22:40 27.35828 -142.92820 40262 ft 440 kts 248°
2026-05-04 22:41 27.33315 -142.99079 40259 ft 440 kts 248°
2026-05-04 22:41 27.30784 -143.05373 40257 ft 440 kts 248°
2026-05-04 22:42 27.28257 -143.11649 40257 ft 440 kts 248°
2026-05-04 22:42 27.25740 -143.17887 40256 ft 440 kts 248°
2026-05-04 22:43 27.23218 -143.24131 40259 ft 440 kts 248°
2026-05-04 22:43 27.20680 -143.30404 40257 ft 440 kts 248°
2026-05-04 22:44 27.18151 -143.36644 40242 ft 440 kts 248°
2026-05-04 22:44 27.15608 -143.42909 40254 ft 440 kts 248°
2026-05-04 22:45 27.13084 -143.49119 40259 ft 440 kts 248°
2026-05-04 22:45 27.09260 -143.58507 40254 ft 439 kts 248°
2026-05-04 22:46 27.06726 -143.64717 40252 ft 440 kts 248°
2026-05-04 22:46 27.04173 -143.70964 40235 ft 440 kts 248°
2026-05-04 22:47 27.01620 -143.77202 40259 ft 439 kts 248°
2026-05-04 22:47 26.99068 -143.83428 40252 ft 440 kts 248°
2026-05-04 22:48 26.96521 -143.89631 40255 ft 440 kts 248°
2026-05-04 22:48 26.93959 -143.95861 40252 ft 440 kts 248°
2026-05-04 22:49 26.91392 -144.02096 40252 ft 440 kts 248°
2026-05-04 22:49 26.88832 -144.08301 40244 ft 440 kts 248°
2026-05-04 22:50 26.86257 -144.14537 40249 ft 440 kts 248°
2026-05-04 22:50 26.83696 -144.20728 40249 ft 440 kts 248°
2026-05-04 22:51 26.81112 -144.26964 40247 ft 440 kts 248°
2026-05-04 22:51 26.78550 -144.33139 40246 ft 440 kts 248°
2026-05-04 22:52 26.75970 -144.39347 40243 ft 440 kts 248°
2026-05-04 22:52 26.73383 -144.45563 40243 ft 439 kts 248°
2026-05-04 22:53 26.70793 -144.51778 40240 ft 439 kts 248°
2026-05-04 22:53 26.68212 -144.57960 40238 ft 439 kts 248°
2026-05-04 22:54 26.65626 -144.64148 40238 ft 439 kts 248°
2026-05-04 22:54 26.63048 -144.70304 40238 ft 439 kts 248°
2026-05-04 22:55 26.60448 -144.76505 40224 ft 439 kts 248°
2026-05-04 22:55 26.57863 -144.82662 40238 ft 438 kts 248°
2026-05-04 22:56 26.55269 -144.88829 40238 ft 438 kts 248°
2026-05-04 22:56 26.52686 -144.94961 40235 ft 438 kts 248°
2026-05-04 22:57 26.50079 -145.01142 40244 ft 438 kts 248°
2026-05-04 22:57 26.47491 -145.07272 40238 ft 438 kts 248°
2026-05-04 22:58 26.44879 -145.13445 40236 ft 439 kts 247°
2026-05-04 22:58 26.42280 -145.19581 40233 ft 439 kts 247°
2026-05-04 22:59 26.39659 -145.25758 40233 ft 439 kts 247°
2026-05-04 22:59 26.37057 -145.31882 40235 ft 439 kts 247°
2026-05-04 23:00 26.34436 -145.38043 40235 ft 439 kts 247°
2026-05-04 23:00 26.31828 -145.44164 40235 ft 439 kts 247°
2026-05-04 23:01 26.29197 -145.50327 40231 ft 438 kts 247°
2026-05-04 23:01 26.26577 -145.56457 40233 ft 437 kts 247°
2026-05-04 23:02 26.23974 -145.62539 40230 ft 437 kts 247°
2026-05-04 23:02 26.21350 -145.68663 40230 ft 437 kts 247°
2026-05-04 23:03 26.18720 -145.74791 40230 ft 437 kts 247°
2026-05-04 23:03 26.16108 -145.80866 40228 ft 437 kts 247°
2026-05-04 23:04 26.13478 -145.86976 40223 ft 437 kts 247°
2026-05-04 23:04 26.10863 -145.93043 40222 ft 436 kts 247°
2026-05-04 23:05 26.08231 -145.99141 40222 ft 436 kts 247°
2026-05-04 23:05 26.05599 -146.05230 40222 ft 436 kts 247°
2026-05-04 23:06 26.02978 -146.11285 40222 ft 436 kts 247°
2026-05-04 23:06 26.00337 -146.17379 40222 ft 436 kts 247°
2026-05-04 23:07 25.97715 -146.23429 40216 ft 435 kts 247°
2026-05-04 23:07 25.95094 -146.29467 40215 ft 434 kts 247°
2026-05-04 23:08 25.92458 -146.35533 40219 ft 434 kts 247°
2026-05-04 23:08 25.89837 -146.41559 40219 ft 434 kts 247°
2026-05-04 23:09 25.87218 -146.47570 40223 ft 434 kts 247°
2026-05-04 23:09 25.84577 -146.53622 40213 ft 434 kts 247°
2026-05-04 23:10 25.81939 -146.59659 40214 ft 434 kts 247°
2026-05-04 23:10 25.79322 -146.65639 40212 ft 433 kts 247°
2026-05-04 23:11 25.76681 -146.71666 40207 ft 433 kts 247°
2026-05-04 23:11 25.74056 -146.77648 40210 ft 433 kts 247°
2026-05-04 23:12 25.71408 -146.83675 40213 ft 433 kts 247°
2026-05-04 23:12 25.68764 -146.89685 40211 ft 433 kts 247°
2026-05-04 23:13 25.66132 -146.95659 40195 ft 433 kts 247°
2026-05-04 23:13 25.63480 -147.01669 40203 ft 432 kts 247°
2026-05-04 23:14 25.60849 -147.07623 40202 ft 432 kts 247°
2026-05-04 23:14 25.58201 -147.13609 40211 ft 432 kts 247°
2026-05-04 23:15 25.55569 -147.19552 40202 ft 432 kts 247°
2026-05-04 23:15 25.52914 -147.25536 40203 ft 432 kts 247°
2026-05-04 23:16 25.50268 -147.31494 40198 ft 432 kts 247°
2026-05-04 23:16 25.47623 -147.37438 40202 ft 431 kts 247°
2026-05-04 23:17 25.44966 -147.43403 40202 ft 431 kts 247°
2026-05-04 23:17 25.42322 -147.49333 40205 ft 431 kts 247°
2026-05-04 23:18 25.39658 -147.55298 40201 ft 431 kts 247°
2026-05-04 23:18 25.36994 -147.61256 40198 ft 431 kts 247°
2026-05-04 23:19 25.34344 -147.67173 40198 ft 431 kts 247°
2026-05-04 23:19 25.31686 -147.73101 40195 ft 431 kts 247°
2026-05-04 23:20 25.29469 -147.78039 40198 ft 431 kts 247°
2026-05-04 23:20 25.26798 -147.83982 40198 ft 431 kts 247°
2026-05-04 23:21 25.24126 -147.89918 40197 ft 431 kts 247°
2026-05-04 23:21 25.21468 -147.95817 40198 ft 431 kts 247°
2026-05-04 23:22 25.18794 -148.01742 40198 ft 431 kts 247°
2026-05-04 23:22 25.16113 -148.07674 40199 ft 431 kts 247°
2026-05-04 23:23 25.13448 -148.13564 40194 ft 431 kts 247°
2026-05-04 23:23 25.10760 -148.19497 40195 ft 431 kts 247°
2026-05-04 23:24 25.08086 -148.25390 40195 ft 431 kts 247°
2026-05-04 23:24 25.05412 -148.31277 40195 ft 431 kts 247°
2026-05-04 23:25 25.02721 -148.37194 40195 ft 431 kts 247°
2026-05-04 23:25 25.00045 -148.43069 40195 ft 431 kts 247°
2026-05-04 23:26 24.97349 -148.48982 40189 ft 431 kts 247°
2026-05-04 23:26 24.94652 -148.54888 40192 ft 431 kts 247°
2026-05-04 23:27 24.91970 -148.60753 40192 ft 431 kts 246°
2026-05-04 23:27 24.89267 -148.66657 40192 ft 431 kts 246°
2026-05-04 23:28 24.86581 -148.72517 40192 ft 431 kts 246°
2026-05-04 23:28 24.83877 -148.78409 40189 ft 431 kts 246°
2026-05-04 23:29 24.81167 -148.84305 40192 ft 431 kts 246°
2026-05-04 23:29 24.78462 -148.90184 40192 ft 431 kts 246°
2026-05-04 23:30 24.75763 -148.96040 40189 ft 431 kts 246°
2026-05-04 23:30 24.73043 -149.01935 40189 ft 431 kts 246°
2026-05-04 23:31 24.70337 -149.07794 40186 ft 431 kts 246°
2026-05-04 23:31 24.67612 -149.13685 40186 ft 431 kts 246°
2026-05-04 23:32 24.64901 -149.19538 40189 ft 431 kts 246°
2026-05-04 23:32 24.62177 -149.25413 40171 ft 431 kts 246°
2026-05-04 23:33 24.59465 -149.31254 40188 ft 431 kts 246°
2026-05-04 23:33 24.56734 -149.37127 40190 ft 431 kts 246°
2026-05-04 23:34 24.53997 -149.43008 40187 ft 431 kts 246°
2026-05-04 23:34 24.51279 -149.48839 40186 ft 431 kts 246°
2026-05-04 23:35 24.48536 -149.54717 40188 ft 431 kts 246°
2026-05-04 23:35 24.45807 -149.60558 40179 ft 431 kts 246°
2026-05-04 23:36 24.43069 -149.66409 40176 ft 431 kts 246°
2026-05-04 23:36 24.40335 -149.72246 40184 ft 431 kts 246°
2026-05-04 23:37 24.37586 -149.78107 40180 ft 431 kts 246°
2026-05-04 23:37 24.34854 -149.83925 40180 ft 431 kts 246°
2026-05-04 23:38 24.32103 -149.89776 40182 ft 431 kts 246°
2026-05-04 23:38 24.29363 -149.95597 40181 ft 431 kts 246°
2026-05-04 23:39 24.26608 -150.01440 40182 ft 431 kts 246°
2026-05-04 23:39 24.23845 -150.07293 40170 ft 431 kts 246°
2026-05-04 23:40 24.21106 -150.13090 40179 ft 430 kts 246°
2026-05-04 23:40 24.18353 -150.18909 40177 ft 430 kts 246°
2026-05-04 23:41 24.15595 -150.24732 40176 ft 430 kts 246°
2026-05-04 23:41 24.12844 -150.30532 40179 ft 431 kts 246°
2026-05-04 23:42 24.10076 -150.36362 40175 ft 431 kts 246°
2026-05-04 23:42 24.07312 -150.42175 40172 ft 431 kts 246°
2026-05-04 23:43 24.04542 -150.47993 40170 ft 431 kts 246°
2026-05-04 23:43 24.01782 -150.53784 40177 ft 431 kts 246°
2026-05-04 23:44 23.99005 -150.59604 40174 ft 431 kts 246°
2026-05-04 23:44 23.96225 -150.65421 40173 ft 431 kts 246°
2026-05-04 23:45 23.93468 -150.71184 40175 ft 431 kts 246°
2026-05-04 23:45 23.90687 -150.76991 40175 ft 431 kts 246°
2026-05-04 23:46 23.87901 -150.82801 40171 ft 431 kts 246°
2026-05-04 23:46 23.85126 -150.88581 40172 ft 431 kts 246°
2026-05-04 23:47 23.82335 -150.94388 40173 ft 431 kts 246°
2026-05-04 23:47 23.79560 -151.00153 40175 ft 431 kts 246°
2026-05-04 23:48 23.76761 -151.05963 40175 ft 431 kts 246°
2026-05-04 23:48 23.73983 -151.11720 40167 ft 431 kts 246°
2026-05-04 23:49 23.71175 -151.17535 40170 ft 431 kts 246°
2026-05-04 23:49 23.68390 -151.23293 40169 ft 431 kts 245°
2026-05-04 23:50 23.65588 -151.29081 40161 ft 432 kts 245°
2026-05-04 23:50 23.62792 -151.34850 40169 ft 432 kts 245°
2026-05-04 23:51 23.59969 -151.40667 40165 ft 432 kts 245°
2026-05-04 23:51 23.57151 -151.46466 40165 ft 432 kts 245°
2026-05-04 23:52 23.54343 -151.52237 40165 ft 432 kts 245°
2026-05-04 23:52 23.51521 -151.58031 40165 ft 432 kts 245°
2026-05-04 23:53 23.48710 -151.63795 40165 ft 432 kts 245°
2026-05-04 23:53 23.45879 -151.69594 40161 ft 433 kts 245°
2026-05-04 23:54 23.43039 -151.75406 40165 ft 434 kts 245°
2026-05-04 23:54 23.40219 -151.81168 40165 ft 434 kts 245°
2026-05-04 23:55 23.37374 -151.86974 40162 ft 434 kts 245°
2026-05-04 23:56 23.33115 -151.95654 40163 ft 434 kts 245°
2026-05-04 23:56 23.30269 -152.01446 40163 ft 433 kts 245°
2026-05-04 23:57 23.27436 -152.07204 40162 ft 433 kts 245°
2026-05-04 23:57 23.24584 -152.12997 40161 ft 435 kts 245°
2026-05-04 23:58 23.21716 -152.18813 40160 ft 435 kts 245°
2026-05-04 23:58 23.18866 -152.24584 40160 ft 435 kts 245°
2026-05-04 23:59 23.15992 -152.30398 40155 ft 436 kts 245°
2026-05-04 23:59 23.13133 -152.36175 40152 ft 436 kts 245°
2026-05-05 00:00 23.10255 -152.41984 40156 ft 436 kts 245°
2026-05-05 00:00 23.07374 -152.47793 40161 ft 436 kts 245°
2026-05-05 00:01 23.04503 -152.53575 40160 ft 436 kts 245°
2026-05-05 00:01 23.01629 -152.59356 40158 ft 437 kts 245°
2026-05-05 00:02 22.98735 -152.65127 40153 ft 437 kts 244°
2026-05-05 00:02 22.95817 -152.70935 40155 ft 437 kts 244°
2026-05-05 00:03 22.92923 -152.76695 40155 ft 437 kts 244°
2026-05-05 00:03 22.90014 -152.82480 40155 ft 437 kts 244°
2026-05-05 00:04 22.87093 -152.88280 40151 ft 436 kts 244°
2026-05-05 00:04 22.84176 -152.94068 40152 ft 436 kts 244°
2026-05-05 00:05 22.81275 -152.99818 40151 ft 436 kts 244°
2026-05-05 00:05 22.78353 -153.05602 40156 ft 436 kts 244°
2026-05-05 00:06 22.75448 -153.11345 40151 ft 436 kts 244°
2026-05-05 00:06 22.72523 -153.17122 40150 ft 436 kts 244°
2026-05-05 00:07 22.69616 -153.22858 40153 ft 436 kts 244°
2026-05-05 00:07 22.66690 -153.28623 40151 ft 436 kts 244°
2026-05-05 00:08 22.64256 -153.33414 40146 ft 436 kts 244°
2026-05-05 00:08 22.61320 -153.39189 40142 ft 438 kts 244°
2026-05-05 00:09 22.58389 -153.44946 40147 ft 438 kts 244°
2026-05-05 00:09 22.55437 -153.50737 40152 ft 439 kts 244°
2026-05-05 00:10 22.52499 -153.56495 40154 ft 439 kts 244°
2026-05-05 00:10 22.49545 -153.62277 40146 ft 439 kts 244°
2026-05-05 00:11 22.46593 -153.68051 40144 ft 439 kts 244°
2026-05-05 00:11 22.43632 -153.73834 40142 ft 439 kts 244°
2026-05-05 00:12 22.40684 -153.79587 40145 ft 439 kts 244°
2026-05-05 00:12 22.37895 -153.85474 40145 ft 438 kts 251°
2026-05-05 00:13 22.36527 -153.91811 40143 ft 434 kts 266°
2026-05-05 00:13 22.36534 -153.98299 40144 ft 435 kts 271°
2026-05-05 00:14 22.36693 -154.04860 40142 ft 435 kts 271°
2026-05-05 00:14 22.36836 -154.11378 40147 ft 435 kts 271°
2026-05-05 00:15 22.36971 -154.17905 40146 ft 435 kts 271°
2026-05-05 00:15 22.37103 -154.24442 40128 ft 435 kts 271°
2026-05-05 00:16 22.37231 -154.30980 40144 ft 435 kts 271°
2026-05-05 00:16 22.37356 -154.37487 40145 ft 435 kts 271°
2026-05-05 00:17 22.37479 -154.44027 40144 ft 435 kts 271°
2026-05-05 00:17 22.37600 -154.50569 40133 ft 435 kts 271°
2026-05-05 00:18 22.37717 -154.57083 40137 ft 435 kts 271°
2026-05-05 00:18 22.37832 -154.63633 40140 ft 435 kts 271°
2026-05-05 00:19 22.37945 -154.70179 40143 ft 435 kts 271°
2026-05-05 00:19 22.38054 -154.76681 40143 ft 435 kts 271°
2026-05-05 00:20 22.38162 -154.83241 40143 ft 435 kts 271°
2026-05-05 00:20 22.38266 -154.89756 40131 ft 435 kts 271°
2026-05-05 00:21 22.38368 -154.96279 40133 ft 435 kts 270°
2026-05-05 00:21 22.38467 -155.02831 40132 ft 435 kts 270°
2026-05-05 00:22 22.38563 -155.09345 40144 ft 435 kts 270°
2026-05-05 00:22 22.38658 -155.15891 40138 ft 435 kts 270°
2026-05-05 00:23 22.38749 -155.22441 40054 ft 432 kts 270°
2026-05-05 00:23 22.38793 -155.25638 39846 ft 429 kts 270°
2026-05-05 00:23 22.38837 -155.28885 39614 ft 434 kts 270°
2026-05-05 00:23 22.38880 -155.32159 39384 ft 436 kts 270°
2026-05-05 00:24 22.38923 -155.35452 39116 ft 439 kts 270°
2026-05-05 00:24 22.38966 -155.38767 38910 ft 441 kts 270°
2026-05-05 00:24 22.39008 -155.42056 38652 ft 442 kts 270°
2026-05-05 00:24 22.39049 -155.45400 38373 ft 443 kts 270°
2026-05-05 00:25 22.39090 -155.48737 38113 ft 444 kts 270°
2026-05-05 00:25 22.39130 -155.52044 37850 ft 445 kts 270°
2026-05-05 00:25 22.39170 -155.55404 37586 ft 446 kts 270°
2026-05-05 00:25 22.39209 -155.58761 37326 ft 447 kts 270°
2026-05-05 00:26 22.39248 -155.62131 37078 ft 449 kts 270°
2026-05-05 00:26 22.39286 -155.65508 36818 ft 450 kts 270°
2026-05-05 00:26 22.39323 -155.68861 36570 ft 451 kts 270°
2026-05-05 00:26 22.39360 -155.72271 36323 ft 452 kts 270°
2026-05-05 00:27 22.39396 -155.75650 36078 ft 453 kts 270°
2026-05-05 00:27 22.39431 -155.79086 35838 ft 454 kts 270°
2026-05-05 00:27 22.39466 -155.82501 35594 ft 455 kts 270°
2026-05-05 00:27 22.39500 -155.85894 35363 ft 456 kts 270°
2026-05-05 00:28 22.39534 -155.89338 35119 ft 458 kts 270°
2026-05-05 00:28 22.39567 -155.92807 34876 ft 459 kts 270°
2026-05-05 00:28 22.39599 -155.96261 34651 ft 460 kts 270°
2026-05-05 00:28 22.39631 -155.99719 34418 ft 461 kts 270°
2026-05-05 00:29 22.39662 -156.03153 34196 ft 462 kts 270°
2026-05-05 00:29 22.39692 -156.06634 33943 ft 463 kts 270°
2026-05-05 00:29 22.39722 -156.10130 33682 ft 465 kts 270°
2026-05-05 00:29 22.39751 -156.13632 33416 ft 466 kts 270°
2026-05-05 00:30 22.39738 -156.17099 33163 ft 467 kts 268°
2026-05-05 00:30 22.39375 -156.20601 32908 ft 469 kts 259°
2026-05-05 00:30 22.38507 -156.24008 32656 ft 471 kts 251°
2026-05-05 00:30 22.37130 -156.27239 32405 ft 474 kts 242°
2026-05-05 00:31 22.35274 -156.30210 32161 ft 478 kts 234°
2026-05-05 00:31 22.33192 -156.32966 31918 ft 480 kts 232°
2026-05-05 00:31 22.31038 -156.35743 31668 ft 481 kts 232°
2026-05-05 00:31 22.28893 -156.38516 31421 ft 482 kts 232°
2026-05-05 00:32 22.26733 -156.41314 31210 ft 483 kts 232°
2026-05-05 00:32 22.24605 -156.44074 30957 ft 484 kts 232°
2026-05-05 00:32 22.22436 -156.46891 30716 ft 486 kts 232°
2026-05-05 00:32 22.20272 -156.49700 30483 ft 487 kts 232°
2026-05-05 00:33 22.18125 -156.52488 30256 ft 488 kts 232°
2026-05-05 00:33 22.15947 -156.55315 29989 ft 489 kts 232°
2026-05-05 00:33 22.13764 -156.58147 29704 ft 488 kts 232°
2026-05-05 00:33 22.11616 -156.60932 29450 ft 487 kts 232°
2026-05-05 00:34 22.09450 -156.63740 29191 ft 485 kts 232°
2026-05-05 00:34 22.07291 -156.66536 28921 ft 484 kts 232°
2026-05-05 00:34 22.05142 -156.69318 28659 ft 482 kts 232°
2026-05-05 00:34 22.02988 -156.72106 28400 ft 481 kts 232°
2026-05-05 00:35 22.00876 -156.74838 28138 ft 479 kts 232°
2026-05-05 00:35 21.98726 -156.77619 27882 ft 478 kts 232°
2026-05-05 00:35 21.96592 -156.80376 27630 ft 477 kts 232°
2026-05-05 00:35 21.94491 -156.83089 27384 ft 476 kts 232°
2026-05-05 00:36 21.92366 -156.85833 27138 ft 475 kts 232°
2026-05-05 00:36 21.90247 -156.88567 26892 ft 473 kts 232°
2026-05-05 00:36 21.88162 -156.91256 26653 ft 472 kts 231°
2026-05-05 00:36 21.86049 -156.93979 26405 ft 471 kts 231°
2026-05-05 00:37 21.83954 -156.96679 26159 ft 469 kts 231°
2026-05-05 00:37 21.81859 -156.99386 25943 ft 468 kts 231°
2026-05-05 00:37 21.79772 -157.02076 25704 ft 467 kts 231°
2026-05-05 00:37 21.77715 -157.04726 25467 ft 466 kts 231°
2026-05-05 00:38 21.75640 -157.07397 25003 ft 461 kts 231°
2026-05-05 00:38 21.73585 -157.10043 24361 ft 458 kts 231°
2026-05-05 00:38 21.71544 -157.12668 23661 ft 455 kts 231°
2026-05-05 00:38 21.69518 -157.15275 22878 ft 452 kts 231°
2026-05-05 00:39 21.67537 -157.17822 22186 ft 447 kts 231°
2026-05-05 00:39 21.65554 -157.20370 21496 ft 442 kts 231°
2026-05-05 00:39 21.63588 -157.22896 20814 ft 437 kts 231°
2026-05-05 00:39 21.61644 -157.25391 20117 ft 433 kts 231°
2026-05-05 00:40 21.59716 -157.27865 19437 ft 429 kts 231°
2026-05-05 00:40 21.57806 -157.30317 18736 ft 426 kts 230°
2026-05-05 00:40 21.55904 -157.32757 17994 ft 423 kts 230°
2026-05-05 00:40 21.54017 -157.35175 17274 ft 418 kts 230°
2026-05-05 00:41 21.52183 -157.37524 16579 ft 413 kts 230°
2026-05-05 00:41 21.50337 -157.39888 15885 ft 409 kts 230°
2026-05-05 00:41 21.48512 -157.42224 15180 ft 405 kts 230°
2026-05-05 00:41 21.46712 -157.44526 14498 ft 400 kts 230°
2026-05-05 00:42 21.44923 -157.46814 13784 ft 397 kts 230°
2026-05-05 00:42 21.43181 -157.49041 13067 ft 392 kts 230°
2026-05-05 00:42 21.41435 -157.51273 12382 ft 386 kts 230°
2026-05-05 00:42 21.39715 -157.53477 11700 ft 381 kts 230°
2026-05-05 00:43 21.38016 -157.55644 11195 ft 374 kts 230°
2026-05-05 00:43 21.36402 -157.57699 11046 ft 355 kts 230°
2026-05-05 00:43 21.34848 -157.59680 10919 ft 337 kts 230°
2026-05-05 00:43 21.33373 -157.61558 10806 ft 321 kts 230°
2026-05-05 00:44 21.31969 -157.63353 10671 ft 306 kts 231°
2026-05-05 00:44 21.30624 -157.65068 10560 ft 293 kts 230°
2026-05-05 00:44 21.29334 -157.66706 10426 ft 282 kts 230°
2026-05-05 00:44 21.28102 -157.68272 10261 ft 275 kts 230°
2026-05-05 00:45 21.26967 -157.69920 9942 ft 274 kts 241°
2026-05-05 00:45 21.26353 -157.71874 9620 ft 283 kts 261°
2026-05-05 00:45 21.26113 -157.73994 9354 ft 289 kts 264°
2026-05-05 00:45 21.25935 -157.76115 8967 ft 288 kts 265°
2026-05-05 00:46 21.25756 -157.78252 8589 ft 286 kts 264°
2026-05-05 00:46 21.25570 -157.80376 8249 ft 285 kts 264°
2026-05-05 00:46 21.25380 -157.82493 7913 ft 284 kts 264°
2026-05-05 00:46 21.25189 -157.84596 7582 ft 283 kts 264°
2026-05-05 00:47 21.24997 -157.86692 7314 ft 278 kts 263°
2026-05-05 00:47 21.24814 -157.88678 7180 ft 266 kts 263°
2026-05-05 00:47 21.24697 -157.89951 7092 ft 259 kts 264°
2026-05-05 00:47 21.24525 -157.91806 6966 ft 247 kts 263°
2026-05-05 00:48 21.24358 -157.93601 6824 ft 238 kts 263°
2026-05-05 00:48 21.24195 -157.95356 6598 ft 236 kts 263°
2026-05-05 00:48 21.24031 -157.97098 6333 ft 235 kts 263°
2026-05-05 00:48 21.23871 -157.98838 6065 ft 234 kts 264°
2026-05-05 00:49 21.23806 -158.00581 5901 ft 234 kts 268°
2026-05-05 00:49 21.23801 -158.02307 5724 ft 235 kts 269°
2026-05-05 00:49 21.23802 -158.04059 5415 ft 234 kts 269°
2026-05-05 00:49 21.23804 -158.05798 5139 ft 232 kts 270°
2026-05-05 00:50 21.23805 -158.07523 4837 ft 230 kts 270°
2026-05-05 00:50 21.23806 -158.09239 4511 ft 229 kts 270°
2026-05-05 00:50 21.23811 -158.10954 4154 ft 230 kts 271°
2026-05-05 00:50 21.24186 -158.12588 3776 ft 229 kts 301°
2026-05-05 00:51 21.25299 -158.13772 3421 ft 225 kts 334°
2026-05-05 00:51 21.26785 -158.14202 3098 ft 220 kts 356°
2026-05-05 00:51 21.28293 -158.14280 2821 ft 218 kts
2026-05-05 00:51 21.29694 -158.13779 2513 ft 209 kts 39°
2026-05-05 00:52 21.30623 -158.12666 2420 ft 194 kts 57°
2026-05-05 00:52 21.31333 -158.11485 2332 ft 182 kts 59°
2026-05-05 00:52 21.31965 -158.10390 2275 ft 168 kts 59°
2026-05-05 00:52 21.32446 -158.09287 2091 ft 159 kts 73°
2026-05-05 00:53 21.32558 -158.08128 2008 ft 156 kts 87°
2026-05-05 00:53 21.32546 -158.06955 2012 ft 157 kts 86°
2026-05-05 00:53 21.32540 -158.05789 2009 ft 156 kts 86°
2026-05-05 00:53 21.32540 -158.04661 1944 ft 148 kts 86°
2026-05-05 00:54 21.32539 -158.03572 1728 ft 142 kts 87°
2026-05-05 00:54 21.32537 -158.02552 1523 ft 130 kts 86°
2026-05-05 00:54 21.32518 -158.01616 1379 ft 125 kts 86°
2026-05-05 00:54 21.32501 -158.00698 1267 ft 123 kts 85°
2026-05-05 00:55 21.32534 -157.99775 1018 ft 123 kts 84°
2026-05-05 00:55 21.32540 -157.98850 875 ft 127 kts 88°
2026-05-05 00:55 21.32533 -157.97889 694 ft 130 kts 88°
2026-05-05 00:55 21.32523 -157.97250 621 ft 128 kts 89°
2026-05-05 00:56 21.32541 -157.95977 372 ft 131 kts 86°
2026-05-05 00:56 21.32535 -157.95003 206 ft 127 kts 89°
2026-05-05 00:56 21.32529 -157.94092 41 ft 119 kts 89°
2026-05-05 00:56 21.32530 -157.93541 28 ft 100 kts 90°
2026-05-05 00:57 21.32528 -157.92765 28 ft 61 kts 90°
2026-05-05 00:57 21.32527 -157.92486 29 ft 38 kts 90°
2026-05-05 00:57 21.32554 -157.92275 28 ft 26 kts 66°
2026-05-05 00:57 21.32647 -157.92095 28 ft 22 kts 59°
2026-05-05 00:58 21.32694 -157.92008 28 ft 15 kts 60°
2026-05-05 00:58 21.32776 -157.91928 26 ft 18 kts 14°
2026-05-05 00:58 21.32902 -157.91905 26 ft 14 kts
2026-05-05 00:58 21.32987 -157.91891 28 ft 13 kts
2026-05-05 00:59 21.33064 -157.91877 29 ft 9 kts
2026-05-05 00:59 21.33098 -157.91872 29 ft 0 kts